Regional Weather Roundup
Issued by NWS

Home | Current Version | Previous Version | Text Only | Print | Product List | Glossary Off
Versions: 1 2 3 4 5 6 7 8 9 10 11 12 13 14 15 16 17 18 19 20 21 22 23 24 25 26 27 28 29 30 31 32 33 34 35 36 37 38 39 40 41 42 43 44 45 46 47 48 49 50

000
ASUS43 KBIS 211631
RWRND
NORTH DAKOTA REGIONAL WEATHER ROUNDUP
NATIONAL WEATHER SERVICE EASTERN NORTH DAKOTA/GRAND FORKS ND
1100 AM CDT SAT APR 21 2018

  NOTE: "FAIR" INDICATES FEW OR NO CLOUDS BELOW 12,000 FEET WITH NO
  SIGNIFICANT WEATHER AND/OR OBSTRUCTIONS TO VISIBILITY.

NDZ001>003-009>011-017-211700-
...NORTHWEST NORTH DAKOTA...

CITY           SKY/WX    TMP DP  RH WIND       PRES   REMARKS
WILLISTON      FAIR      54  39  57 S15G24    30.09F
MINOT          FAIR      51  39  63 S14G26    30.17F
MINOT AFB      FAIR      51  39  64 S20G28    30.15F
$$

NDZ018>021-031>035-040>046-211700-
...SOUTHWEST NORTH DAKOTA...

CITY           SKY/WX    TMP DP  RH WIND       PRES   REMARKS
BISMARCK       FAIR      55  38  52 S18G25    30.24F
DICKINSON      FAIR      49  38  65 S23       30.14F
GARRISON         N/A     50  41  71 S15       30.18F
HETTINGER      FAIR      53  37  54 S21G29    30.19F
$$

NDZ004>008-012>016-024-026-027-054-211700-
...NORTHEAST NORTH DAKOTA...

CITY           SKY/WX    TMP DP  RH WIND       PRES   REMARKS
GRAND FORKS    PTSUNNY   44  41  89 S14       30.33F
GRAND FORKS AF PTSUNNY   43  39  86 S10       30.32F
DEVILS LAKE    FAIR      51  38  60 S12       30.28F
$$

NDZ022-023-025-028>030-036>039-047>053-211700-
...SOUTHEAST NORTH DAKOTA...

CITY           SKY/WX    TMP DP  RH WIND       PRES   REMARKS
JAMESTOWN      FAIR      54  39  57 S10       30.30F
FARGO          FAIR      49  38  65 S8        30.35F
WAHPETON       FAIR      46  36  66 S6        30.38S
$$




USA.gov is the U.S. government's official web portal to all federal, state and local government web resources and services.